When you browse on this site, cookies collect data to enhance your experience and personalize the content and advertising you see.
Visit our Privacy Policy to learn more. By continuing to use the site, you agree to this use of cookies and data.
  • In Sweden
  • List of Countries
  • For 7 days
  • Water Temperature
  • Satellite Maps
  • Weather Map
  • Weather Widgets
  • user-avatar
    Login

    Hourly Weather Newcastle

    Today, 18 June, Tuesday

    Time Temperature Precipitation Wind Pressure Humidity
    00:00 +13°C° 0.4 mm 4 mps 763 mmHg 92%
    01:00 +12°C° 0.4 mm 4 mps 763 mmHg 92%
    02:00 +12°C° 0.3 mm 4 mps 763 mmHg 92%
    03:00 +12°C° 0.3 mm 4 mps 763 mmHg 92%
    04:00 +12°C° 0 mm 3 mps 762 mmHg 94%
    05:00 +12°C° 0.1 mm 3 mps 763 mmHg 93%
    06:00 +12°C° 0.1 mm 3 mps 763 mmHg 93%
    07:00 +12°C° 0.1 mm 4 mps 763 mmHg 93%
    08:00 +13°C° 0.1 mm 4 mps 763 mmHg 88%
    09:00 +14°C° 0.1 mm 4 mps 763 mmHg 83%
    10:00 +16°C° 0 mm 3 mps 763 mmHg 81%
    11:00 +17°C° 0 mm 3 mps 763 mmHg 75%
    12:00 +19°C° 0 mm 3 mps 762 mmHg 68%
    13:00 +20°C° 0 mm 3 mps 761 mmHg 62%
    14:00 +20°C° 0 mm 2 mps 761 mmHg 66%
    15:00 +19°C° 0 mm 2 mps 761 mmHg 69%
    16:00 +19°C° 0 mm 2 mps 761 mmHg 73%
    17:00 +17°C° 0 mm 2 mps 762 mmHg 77%
    18:00 +16°C° 0 mm 2 mps 762 mmHg 82%
    19:00 +14°C° 0 mm 1 mps 762 mmHg 86%
    20:00 +14°C° 0.2 mm 2 mps 762 mmHg 87%
    21:00 +13°C° 0.2 mm 2 mps 762 mmHg 87%
    22:00 +12°C° 0.2 mm 3 mps 762 mmHg 87%
    23:00 +11°C° 0 mm 4 mps 762 mmHg 88%

    Tomorrow, 19 June, Wednesday

    Time Temperature Precipitation Wind Pressure Humidity
    00:00 +11°C° 0 mm 4 mps 762 mmHg 88%
    01:00 +10°C° 0 mm 5 mps 762 mmHg 88%
    02:00 +9°C° 0 mm 5 mps 762 mmHg 87%
    03:00 +10°C° 0 mm 4 mps 762 mmHg 86%
    04:00 +8°C° 0 mm 4 mps 763 mmHg 84%
    05:00 +8°C° 0 mm 4 mps 763 mmHg 85%
    06:00 +7°C° 0 mm 4 mps 764 mmHg 86%
    07:00 +6°C° 0 mm 4 mps 764 mmHg 87%
    08:00 +8°C° 0 mm 4 mps 764 mmHg 78%
    09:00 +11°C° 0 mm 4 mps 764 mmHg 70%
    10:00 +13°C° 0 mm 4 mps 765 mmHg 62%
    11:00 +14°C° 0.1 mm 5 mps 764 mmHg 61%
    12:00 +15°C° 0.1 mm 5 mps 764 mmHg 60%
    13:00 +16°C° 0.1 mm 6 mps 763 mmHg 59%
    14:00 +16°C° 0.1 mm 6 mps 764 mmHg 62%
    15:00 +15°C° 0.1 mm 6 mps 764 mmHg 65%
    16:00 +14°C° 0.1 mm 6 mps 764 mmHg 67%
    17:00 +13°C° 0 mm 6 mps 765 mmHg 71%
    18:00 +12°C° 0 mm 5 mps 765 mmHg 74%
    19:00 +10°C° 0 mm 5 mps 766 mmHg 78%
    20:00 +10°C° 0 mm 4 mps 766 mmHg 79%
    21:00 +10°C° 0 mm 4 mps 766 mmHg 80%
    22:00 +8°C° 0 mm 4 mps 767 mmHg 82%
    23:00 +9°C° 0 mm 3 mps 767 mmHg 81%

    Day after tomorrow, 20 June, Thursday

    Time Temperature Precipitation Wind Pressure Humidity
    00:00 +9°C° 0 mm 3 mps 766 mmHg 80%
    01:00 +9°C° 0 mm 2 mps 766 mmHg 79%
    02:00 +8°C° 0.1 mm 3 mps 766 mmHg 82%
    03:00 +8°C° 0.1 mm 3 mps 766 mmHg 85%
    04:00 +7°C° 0.1 mm 3 mps 766 mmHg 89%
    05:00 +8°C° 0.1 mm 3 mps 766 mmHg 87%
    06:00 +8°C° 0.1 mm 3 mps 767 mmHg 85%
    07:00 +8°C° 0.1 mm 3 mps 767 mmHg 83%
    08:00 +9°C° 0 mm 3 mps 767 mmHg 78%
    09:00 +12°C° 0 mm 2 mps 767 mmHg 73%
    10:00 +13°C° 0 mm 2 mps 767 mmHg 69%
    11:00 +14°C° 0 mm 2 mps 766 mmHg 67%
    12:00 +15°C° 0 mm 2 mps 765 mmHg 66%
    13:00 +15°C° 0 mm 2 mps 765 mmHg 65%
    14:00 +15°C° 0 mm 2 mps 764 mmHg 67%
    15:00 +15°C° 0 mm 1 mps 764 mmHg 69%
    16:00 +15°C° 0 mm 1 mps 764 mmHg 71%
    17:00 +14°C° 0 mm 1 mps 764 mmHg 74%
    18:00 +13°C° 0 mm 1 mps 765 mmHg 76%
    19:00 +13°C° 0 mm 1 mps 765 mmHg 79%
    20:00 +12°C° 0 mm 1 mps 765 mmHg 82%
    21:00 +11°C° 0 mm 1 mps 765 mmHg 86%
    22:00 +11°C° 0 mm 1 mps 765 mmHg 89%
    23:00 +9°C° 0.1 mm 2 mps 765 mmHg 91%

    21 June, Friday

    Time Temperature Precipitation Wind Pressure Humidity
    00:00 +9°C° 0.1 mm 3 mps 765 mmHg 93%
    01:00 +7°C° 0.1 mm 4 mps 764 mmHg 95%
    02:00 +7°C° 0.1 mm 4 mps 764 mmHg 95%
    03:00 +6°C° 0.1 mm 4 mps 764 mmHg 95%
    04:00 +6°C° 0.1 mm 4 mps 764 mmHg 96%
    05:00 +6°C° 0.1 mm 4 mps 765 mmHg 96%
    06:00 +5°C° 0.1 mm 4 mps 765 mmHg 96%
    07:00 +5°C° 0.1 mm 4 mps 765 mmHg 96%
    08:00 +7°C° 0 mm 4 mps 766 mmHg 87%
    09:00 +10°C° 0 mm 4 mps 766 mmHg 77%
    10:00 +11°C° 0 mm 4 mps 766 mmHg 68%
    11:00 +12°C° 0 mm 4 mps 765 mmHg 62%
    12:00 +13°C° 0 mm 5 mps 765 mmHg 56%
    13:00 +15°C° 0 mm 5 mps 765 mmHg 50%
    14:00 +14°C° 0.1 mm 5 mps 765 mmHg 53%
    15:00 +14°C° 0.1 mm 5 mps 765 mmHg 56%
    16:00 +13°C° 0.1 mm 5 mps 765 mmHg 59%
    17:00 +12°C° 0.2 mm 5 mps 766 mmHg 64%
    18:00 +10°C° 0.2 mm 5 mps 767 mmHg 70%
    19:00 +8°C° 0.2 mm 6 mps 767 mmHg 76%
    20:00 +8°C° 0.1 mm 5 mps 768 mmHg 77%
    21:00 +7°C° 0.1 mm 5 mps 768 mmHg 77%
    22:00 +6°C° 0.1 mm 5 mps 768 mmHg 77%
    23:00 +6°C° 0.2 mm 5 mps 768 mmHg 78%

    22 June, Saturday

    Time Temperature Precipitation Wind Pressure Humidity
    00:00 +6°C° 0.2 mm 5 mps 768 mmHg 78%
    01:00 +5°C° 0.2 mm 5 mps 768 mmHg 78%
    02:00 +6°C° 0.3 mm 5 mps 768 mmHg 75%
    03:00 +6°C° 0.3 mm 5 mps 768 mmHg 71%
    04:00 +7°C° 0.3 mm 5 mps 767 mmHg 68%
    05:00 +6°C° 0.3 mm 5 mps 768 mmHg 70%
    06:00 +5°C° 0.3 mm 4 mps 768 mmHg 72%
    07:00 +5°C° 0.3 mm 4 mps 769 mmHg 75%
    08:00 +6°C° 0.3 mm 4 mps 769 mmHg 72%
    09:00 +8°C° 0.3 mm 4 mps 769 mmHg 69%
    10:00 +10°C° 0.3 mm 4 mps 769 mmHg 66%
    11:00 +11°C° 0.8 mm 4 mps 768 mmHg 72%
    12:00 +12°C° 0.8 mm 4 mps 768 mmHg 78%
    13:00 +12°C° 0.8 mm 4 mps 768 mmHg 84%
    14:00 +12°C° 0.6 mm 4 mps 768 mmHg 84%
    15:00 +12°C° 0.6 mm 4 mps 768 mmHg 84%
    16:00 +12°C° 0.6 mm 4 mps 768 mmHg 84%
    17:00 +11°C° 0.4 mm 4 mps 768 mmHg 86%
    18:00 +11°C° 0.4 mm 4 mps 769 mmHg 88%
    19:00 +10°C° 0.4 mm 4 mps 769 mmHg 91%
    20:00 +9°C° 0.5 mm 3 mps 769 mmHg 91%
    21:00 +9°C° 0.5 mm 3 mps 769 mmHg 91%
    22:00 +9°C° 0.5 mm 3 mps 769 mmHg 91%
    23:00 +8°C° 0.2 mm 3 mps 769 mmHg 92%

    23 June, Sunday

    Time Temperature Precipitation Wind Pressure Humidity
    00:00 +8°C° 0.2 mm 3 mps 769 mmHg 93%
    01:00 +8°C° 0.2 mm 3 mps 769 mmHg 94%
    02:00 +6°C° 0.2 mm 4 mps 768 mmHg 95%
    03:00 +6°C° 0.2 mm 4 mps 768 mmHg 96%
    04:00 +6°C° 0.2 mm 4 mps 768 mmHg 97%
    05:00 +6°C° 0.5 mm 4 mps 768 mmHg 97%
    06:00 +6°C° 0.5 mm 4 mps 769 mmHg 97%
    07:00 +6°C° 0.5 mm 4 mps 769 mmHg 97%
    08:00 +7°C° 0.9 mm 4 mps 769 mmHg 96%
    09:00 +8°C° 0.9 mm 5 mps 769 mmHg 94%
    10:00 +9°C° 0.9 mm 5 mps 769 mmHg 93%
    11:00 +9°C° 2 mm 5 mps 768 mmHg 93%
    12:00 +9°C° 2 mm 5 mps 768 mmHg 94%
    13:00 +9°C° 2 mm 5 mps 768 mmHg 94%
    14:00 +9°C° 1.7 mm 5 mps 768 mmHg 94%
    15:00 +9°C° 1.7 mm 5 mps 768 mmHg 94%
    16:00 +9°C° 1.7 mm 5 mps 768 mmHg 94%
    17:00 +8°C° 0.7 mm 5 mps 768 mmHg 94%
    18:00 +8°C° 0.7 mm 4 mps 768 mmHg 93%
    19:00 +8°C° 0.7 mm 4 mps 769 mmHg 93%
    20:00 +8°C° 0.7 mm 4 mps 769 mmHg 93%
    21:00 +8°C° 0.7 mm 4 mps 769 mmHg 94%
    22:00 +7°C° 0.7 mm 4 mps 769 mmHg 94%
    23:00 +7°C° 0.5 mm 4 mps 769 mmHg 94%
    Show more